COSMOS 2406 - Orbit

View from above orbital plane
View from above orbital plane
View from above satellite
View from above satellite

Ground track
Ground track

The orbit data is extracted from the following two-line orbital elements,

1 28352U 04021A   13138.19748244 -.00000201  00000-0 -84972-4 0   239
2 28352 071.0036 356.9192 0015274 199.6345 296.8270 14.11278775460478
Epoch (UTC): 18 May 2013 04:44:22
Eccentricity: 0.0015274
inclination: 71.0036°
perigee height: 844 km
apogee height: 866 km
right ascension of ascending node: 356.9192°
argument of perigee: 199.6345°
revolutions per day: 14.11278775
mean anomaly at epoch: 296.8270°
orbit number at epoch: 46047

The dashed part of the orbit path shows where the satellite is in the earth's shadow,  

Developed and maintained by Chris Peat, Heavens-Above GmbH. Please read the updated FAQ before sending e-mail. Imprint. DLR